| time (UTC) | temp F | wind direction | speed MPH | gust MPH | rain 1hr in | rain 24hr in | rain mn in | humidity % | barometer mb |
| 20260504050319 | 57 | 270 | 0.0 | 2.0 | 0.00 | 0.00 | 0.00 | 100 | 1012.2 |
| 20260504045118 | 56 | 203 | 0.0 | 1.0 | 0.00 | 0.00 | 0.00 | 100 | 1012.2 |
| 20260504043917 | 56 | 198 | 2.0 | 2.0 | 0.00 | 0.00 | 0.00 | 100 | 1012.2 |
| 20260504042716 | 56 | 345 | 1.0 | 3.0 | 0.00 | 0.00 | 0.00 | 100 | 1008.8 |
| 20260504041615 | 55 | 203 | 1.0 | 2.0 | 0.00 | 0.00 | 0.00 | 100 | 1012.2 |
| 20260504040433 | 55 | 207 | 0.0 | 1.0 | 0.00 | 0.00 | 0.00 | 100 | 1012.2 |
| 20260504035213 | 55 | 82 | 1.0 | 2.0 | 0.00 | 0.00 | 0.00 | 100 | 1012.2 |
| 20260504034032 | 55 | 198 | 1.0 | 2.0 | 0.00 | 0.00 | 0.00 | 100 | 1012.2 |
| 20260504032811 | 55 | 180 | 0.0 | 1.0 | 0.00 | 0.00 | 0.00 | 100 | 1012.2 |
| 20260504031629 | 56 | 293 | 5.0 | 8.0 | 0.00 | 0.00 | 0.00 | 100 | 1012.2 |
| 20260504030529 | 56 | 293 | 5.0 | 8.0 | 0.00 | 0.00 | 0.00 | 100 | 1012.2 |
| 20260504025207 | 56 | 293 | 5.0 | 8.0 | 0.00 | 0.00 | 0.00 | 100 | 1012.2 |
| 20260504024006 | 56 | 293 | 5.0 | 8.0 | 0.00 | 0.00 | 0.00 | 100 | 1012.2 |
| 20260504022805 | 56 | 293 | 5.0 | 8.0 | 0.00 | 0.00 | 0.00 | 100 | 1009.7 |
| 20260504021624 | 56 | 293 | 5.0 | 8.0 | 0.00 | 0.00 | 0.00 | 100 | 1010.5 |
| 20260504020404 | 56 | 293 | 5.0 | 8.0 | 0.00 | 0.00 | 0.00 | 100 | 1008.8 |
| 20260504015201 | 56 | 293 | 5.0 | 8.0 | 0.00 | 0.00 | 0.00 | 100 | 1008.8 |
| 20260504014000 | 55 | 293 | 5.0 | 8.0 | 0.00 | 0.00 | 0.00 | 100 | 1008.8 |
| 20260504012759 | 55 | 293 | 5.0 | 8.0 | 0.00 | 0.00 | 0.00 | 100 | 1008.8 |
| 20260504011557 | 55 | 293 | 5.0 | 8.0 | 0.00 | 0.00 | 0.00 | 100 | 1008.8 |
| 20260504010357 | 54 | 293 | 5.0 | 8.0 | 0.00 | 0.00 | 0.00 | 100 | 1008.8 |
| 20260504005155 | 54 | 293 | 5.0 | 8.0 | 0.00 | 0.00 | 0.00 | 100 | 1008.8 |
| 20260504003954 | 54 | 293 | 5.0 | 8.0 | 0.00 | 0.00 | 0.00 | 100 | 1008.8 |
| 20260504002753 | 54 | 293 | 5.0 | 8.0 | 0.00 | 0.00 | 0.00 | 100 | 1008.8 |
| 20260504001552 | 55 | 293 | 5.0 | 8.0 | 0.00 | 0.00 | 0.00 | 100 | 1008.8 |
| 20260504000354 | 55 | 293 | 5.0 | 8.0 | 0.00 | 0.00 | 0.00 | 100 | 1008.8 |
| 20260503235150 | 55 | 293 | 5.0 | 8.0 | 0.00 | 0.00 | 0.00 | 100 | 1008.8 |
| 20260503234010 | 55 | 293 | 5.0 | 8.0 | 0.00 | 0.00 | 0.00 | 100 | 1008.8 |
| 20260503232749 | 55 | 293 | 5.0 | 8.0 | 0.00 | 0.00 | 0.00 | 100 | 1008.8 |
| 20260503231546 | 55 | 293 | 5.0 | 8.0 | 0.00 | 0.00 | 0.00 | 100 | 1008.8 |
| 20260503230345 | 55 | 293 | 5.0 | 8.0 | 0.00 | 0.00 | 0.00 | 100 | 1008.8 |
| 20260503225145 | 56 | 293 | 5.0 | 8.0 | 0.00 | 0.00 | 0.00 | 100 | 1009.7 |
| 20260503223943 | 56 | 293 | 5.0 | 8.0 | 0.00 | 0.00 | 0.00 | 100 | 1012.2 |
| 20260503222742 | 56 | 293 | 5.0 | 8.0 | 0.00 | 0.00 | 0.00 | 100 | 1010.5 |
| 20260503221540 | 56 | 293 | 5.0 | 8.0 | 0.00 | 0.00 | 0.00 | 100 | 1012.2 |
| 20260503220340 | 56 | 293 | 5.0 | 8.0 | 0.00 | 0.00 | 0.00 | 100 | 1010.5 |
| 20260503215150 | 56 | 293 | 5.0 | 8.0 | 0.00 | 0.00 | 0.00 | 100 | 1010.5 |
| 20260503213949 | 56 | 293 | 5.0 | 8.0 | 0.00 | 0.00 | 0.00 | 100 | 1012.2 |
| 20260503212748 | 57 | 293 | 5.0 | 8.0 | 0.00 | 0.00 | 0.00 | 100 | 1010.5 |
| 20260503211546 | 56 | 293 | 5.0 | 8.0 | 0.00 | 0.00 | 0.00 | 100 | 1012.2 |
| 20260503210346 | 57 | 293 | 5.0 | 8.0 | 0.00 | 0.00 | 0.00 | 100 | 1009.7 |
| 20260503205144 | 57 | 293 | 5.0 | 8.0 | 0.00 | 0.00 | 0.00 | 100 | 1008.8 |
| 20260503203944 | 57 | 293 | 5.0 | 8.0 | 0.00 | 0.00 | 0.00 | 100 | 1008.8 |
| 20260503202803 | 57 | 293 | 5.0 | 8.0 | 0.00 | 0.00 | 0.00 | 100 | 1008.8 |
| 20260503201541 | 58 | 293 | 5.0 | 8.0 | 0.00 | 0.00 | 0.00 | 100 | 1008.8 |
| 20260503200340 | 58 | 293 | 5.0 | 8.0 | 0.00 | 0.00 | 0.00 | 100 | 1008.8 |
| 20260503195138 | 58 | 293 | 5.0 | 8.0 | 0.00 | 0.00 | 0.00 | 100 | 1008.8 |
| 20260503193937 | 58 | 293 | 5.0 | 8.0 | 0.00 | 0.00 | 0.00 | 100 | 1008.8 |
| 20260503192736 | 58 | 293 | 5.0 | 8.0 | 0.00 | 0.00 | 0.00 | 100 | 1008.8 |
| 20260503191535 | 58 | 293 | 5.0 | 8.0 | 0.00 | 0.00 | 0.00 | 100 | 1008.8 |
| 20260503190333 | 58 | 293 | 5.0 | 8.0 | 0.00 | 0.00 | 0.00 | 100 | 1008.8 |
| 20260503185132 | 58 | 293 | 5.0 | 8.0 | 0.00 | 0.00 | 0.00 | 100 | 1008.8 |
| 20260503183931 | 58 | 293 | 5.0 | 8.0 | 0.00 | 0.00 | 0.00 | 100 | 1008.8 |
| 20260503182730 | 58 | 293 | 5.0 | 8.0 | 0.00 | 0.00 | 0.00 | 100 | 1008.8 |
| 20260503181549 | 59 | 293 | 5.0 | 8.0 | 0.00 | 0.00 | 0.00 | 99 | 1008.8 |
| 20260503180328 | 59 | 293 | 5.0 | 8.0 | 0.00 | 0.00 | 0.00 | 98 | 1008.8 |
| 20260503175207 | 59 | 293 | 5.0 | 8.0 | 0.00 | 0.00 | 0.00 | 98 | 1008.8 |
| 20260503173946 | 59 | 293 | 5.0 | 8.0 | 0.00 | 0.00 | 0.00 | 97 | 1008.8 |
| 20260503172745 | 59 | 293 | 5.0 | 8.0 | 0.00 | 0.00 | 0.00 | 96 | 1008.8 |
| 20260503171544 | 59 | 293 | 5.0 | 8.0 | 0.00 | 0.00 | 0.00 | 95 | 1008.8 |
| 20260503170323 | 59 | 293 | 5.0 | 8.0 | 0.00 | 0.00 | 0.00 | 93 | 1008.8 |
| 20260503150411 | 67 | 225 | 5.0 | 8.0 | 0.00 | 0.00 | 0.00 | 94 | 1008.8 |
| 20260503130400 | 62 | 293 | 14.0 | 15.0 | 0.00 | 0.00 | 0.00 | 100 | 1008.8 |
| 20260503110408 | 61 | 293 | 14.0 | 15.0 | 0.00 | 0.00 | 0.00 | 100 | 1008.8 |
| 20260503090336 | 60 | 293 | 14.0 | 15.0 | 0.00 | 0.00 | 0.00 | 100 | 1008.8 |
| 20260503081532 | 61 | 293 | 14.0 | 15.0 | 0.00 | 0.00 | 0.00 | 100 | 1008.8 |
| 20260503080330 | 61 | 293 | 14.0 | 15.0 | 0.00 | 0.00 | 0.00 | 100 | 1008.8 |
| 20260503072727 | 61 | 293 | 14.0 | 15.0 | 0.00 | 0.00 | 0.00 | 100 | 1008.9 |
| 20260503071525 | 61 | 293 | 14.0 | 15.0 | 0.00 | 0.00 | 0.00 | 100 | 1008.9 |
| 20260503070324 | 60 | 293 | 14.0 | 15.0 | 0.00 | 0.00 | 0.00 | 100 | 1008.9 |
| 20260503060319 | 59 | 293 | 14.0 | 15.0 | 0.00 | 0.00 | 0.00 | 100 | 1008.9 |
| 20260503055117 | 59 | 293 | 14.0 | 15.0 | 0.00 | 0.00 | 0.00 | 100 | 1008.9 |
| 20260503053916 | 59 | 293 | 14.0 | 15.0 | 0.00 | 0.00 | 0.00 | 100 | 1008.9 |
| 20260503052715 | 59 | 293 | 14.0 | 15.0 | 0.00 | 0.00 | 0.00 | 100 | 1008.9 |
| 20260503051614 | 58 | 293 | 14.0 | 15.0 | 0.00 | 0.00 | 0.00 | 100 | 1008.9 |